Wind_Speed
13 5 6 11 10 12 12 10 9 4 1 3 2 2 4 5 5 5 4 4 4 5 7 10 13 11 9 10 14 23 27 23 22 24 25 29 31 33 35 37 39 42 44 43 42 43 43 43 43 42 42 42 41 41 41 40 40 41 42 42 42 40 39 38 37 35 34 33 31 31 30 29 27 25 24 23 22 22 22 20 18 16 14 13 12 11
11 7 12 14 9 8 9 8 8 7 7 4 3 2 4 4 5 6 4 4 2 4 6 7 9 10 10 10 13 20 20 18 21 24 25 29 32 34 37 39 41 41 39 38 39 42 43 43 43 43 42 42 42 42 41 41 40 40 41 42 42 41 41 40 39 37 36 34 32 31 31 30 27 25 25 24 23 23 22 21 19 17 16 14 13 11
7 10 15 10 6 6 6 7 9 10 9 6 4 4 5 3 3 6 5 3 1 3 4 5 8 9 9 10 12 17 19 22 30 33 33 35 33 34 38 40 40 37 35 37 40 42 43 44 44 44 44 44 43 42 41 40 39 39 40 41 42 42 41 41 40 39 37 35 33 31 30 29 28 26 25 23 23 23 23 22 20 18 17 16 14 12
6 11 12 8 7 9 8 7 10 9 8 7 6 5 5 4 3 4 3 2 2 4 3 3 5 6 5 6 9 18 24 26 32 36 35 37 39 40 42 42 39 38 38 39 41 43 44 45 45 46 46 45 44 43 42 41 41 40 39 40 41 42 42 41 41 40 38 35 34 32 31 30 29 27 26 24 24 24 23 22 21 20 18 17 15 13
7 7 8 12 9 10 11 9 9 8 6 7 8 8 7 5 4 3 3 3 4 4 1 2 2 5 4 7 7 13 18 18 22 26 26 31 37 38 37 37 39 41 42 42 43 44 46 47 48 47 47 46 45 45 44 43 42 41 39 39 39 40 41 41 41 40 39 37 36 34 33 32 31 30 29 27 26 25 24 23 22 21 20 18 16 14
10 7 10 15 13 11 12 11 10 9 5 6 9 9 9 7 5 3 4 4 4 4 3 3 2 6 3 9 10 9 10 13 15 17 22 29 31 30 32 35 39 41 42 44 45 46 47 47 47 47 47 47 47 47 45 43 41 40 39 39 38 38 39 41 41 41 40 39 38 36 36 35 34 34 32 31 29 27 25 24 23 22 21 19 18 15
7 6 9 10 13 13 11 9 9 9 6 6 7 8 9 7 5 4 1 1 2 4 4 1 3 5 4 5 10 9 12 16 14 14 21 27 28 30 35 37 39 40 40 42 43 44 46 46 47 48 49 49 49 48 46 43 41 39 38 38 38 37 37 38 40 41 41 40 39 38 37 36 35 35 34 31 29 27 26 25 23 22 22 21 19 17
7 8 9 8 10 12 10 10 9 11 8 6 6 9 8 8 7 6 4 4 4 3 6 2 4 3 4 5 7 10 14 15 14 15 18 22 28 34 37 37 39 42 43 43 43 43 45 47 49 50 50 51 50 48 46 45 43 40 38 37 36 36 36 37 38 39 40 40 40 38 37 37 36 36 33 31 29 28 27 26 24 23 23 22 20 18
8 11 11 9 8 8 10 11 11 12 9 6 7 9 9 9 8 7 5 5 2 1 7 5 4 3 6 6 3 6 12 13 15 19 16 20 30 35 37 38 40 42 44 45 45 45 46 47 50 51 51 51 49 48 47 47 44 42 40 38 36 36 36 36 36 37 38 39 39 38 37 37 37 36 34 31 30 29 28 27 26 24 23 22 21 19
5 11 15 11 8 8 9 9 9 12 9 4 6 6 6 7 6 6 6 4 2 3 9 7 5 4 6 6 3 3 8 11 14 16 15 22 33 37 38 40 40 41 43 45 46 46 47 47 48 49 49 49 49 49 48 47 45 43 42 40 39 37 36 36 35 36 37 38 39 39 38 37 37 36 35 33 32 30 30 28 27 26 24 23 22 20
4 10 17 11 8 8 7 7 8 13 11 5 5 2 1 2 3 4 3 3 2 6 11 9 8 6 5 6 5 4 6 10 12 12 13 19 29 35 37 39 39 39 42 45 45 45 46 46 45 46 46 47 48 48 48 48 47 45 44 43 42 40 38 37 35 35 35 37 39 39 39 37 36 36 36 35 34 33 32 30 28 27 25 24 23 21
5 7 8 6 12 11 6 6 7 10 10 6 5 4 1 2 2 1 1 2 6 9 8 7 8 8 8 7 5 6 8 11 12 13 13 16 24 33 37 38 40 42 43 43 42 42 43 44 44 44 45 47 47 48 48 49 48 47 45 45 44 42 41 39 37 35 35 35 37 38 39 38 37 36 36 36 35 34 33 31 29 28 26 25 24 23
5 7 3 3 12 14 8 6 5 6 7 6 5 6 5 3 1 3 3 2 7 7 5 5 7 6 8 8 8 9 10 11 12 15 17 19 26 35 39 40 42 44 43 42 43 43 43 45 47 47 47 47 47 49 49 49 48 48 46 45 45 44 43 41 39 37 36 35 35 36 38 39 38 37 37 36 35 34 33 32 30 29 27 26 25 24
2 5 7 5 7 11 12 8 5 4 6 7 6 6 6 4 4 7 5 3 5 5 4 5 6 4 4 6 12 15 14 14 16 20 24 26 31 38 41 43 43 44 44 44 45 45 46 48 49 49 49 49 49 49 50 50 49 48 47 46 46 45 43 42 41 39 37 35 34 34 36 38 38 38 37 37 36 34 33 32 31 29 28 27 25 23
2 3 7 6 2 5 11 9 7 6 6 8 7 6 5 5 5 5 4 4 5 4 5 3 5 5 4 4 11 15 17 18 21 25 28 30 34 36 35 36 38 40 42 44 44 46 49 50 49 50 50 50 51 50 50 50 50 50 49 48 47 45 44 44 42 40 38 37 34 33 34 36 38 38 38 37 36 35 34 33 31 30 29 28 26 23
2 4 4 3 8 4 6 8 9 8 5 7 7 6 6 5 5 3 4 5 3 2 4 3 4 4 4 5 6 8 13 15 19 24 25 27 30 28 26 29 34 37 41 43 43 46 48 48 48 49 51 51 52 51 52 52 52 51 50 49 47 45 44 44 43 42 39 37 36 35 34 34 35 37 38 38 36 35 35 33 32 31 29 28 27 25
2 5 6 11 11 4 4 5 8 10 5 4 6 8 6 5 6 3 4 1 2 4 4 3 5 3 2 6 5 4 8 9 12 16 18 23 24 24 26 32 36 39 41 44 46 48 48 47 48 50 51 52 52 53 53 53 53 53 51 50 48 46 45 45 44 43 40 38 38 37 36 34 34 35 36 37 36 36 35 34 33 32 30 29 28 27
2 6 8 8 6 5 14 14 7 10 9 5 5 8 5 3 4 4 4 2 3 6 4 2 6 4 4 6 3 4 7 9 10 11 13 17 18 22 28 33 38 42 44 46 50 50 47 47 48 49 50 52 53 54 54 54 54 53 52 50 48 47 46 46 44 43 42 40 39 38 38 36 34 34 34 35 35 34 35 35 34 33 32 30 29 28
1 4 6 2 3 9 15 10 5 7 9 7 5 8 7 3 5 5 4 5 5 5 3 3 5 4 6 6 3 7 9 10 10 10 12 12 14 21 28 32 37 41 42 44 48 48 46 46 48 48 50 51 52 53 54 54 53 53 52 51 49 47 45 44 44 44 43 42 40 39 38 37 35 33 33 33 34 34 34 34 34 33 32 31 30 29
2 1 4 3 4 8 7 1 3 5 7 5 3 7 6 4 6 6 4 4 4 4 3 3 4 4 6 6 7 10 11 11 11 10 11 12 16 23 28 31 35 38 40 44 47 48 47 48 49 50 51 51 51 51 52 52 52 53 53 52 50 48 46 45 44 44 44 43 41 40 39 38 36 34 33 33 33 33 33 33 33 32 32 32 31 30
2 2 3 6 8 6 3 1 1 1 1 3 3 4 5 3 2 4 3 3 4 4 3 3 4 5 6 5 9 12 12 12 13 12 12 14 21 28 31 33 35 37 42 45 47 48 50 51 51 51 51 50 48 48 49 51 52 53 53 52 52 50 49 48 46 45 45 43 42 41 40 39 37 35 34 33 32 33 33 33 33 32 31 31 31 30
1 1 2 5 6 4 5 6 3 3 2 2 3 2 5 4 3 4 5 3 3 4 4 3 4 6 6 4 7 10 11 12 13 13 12 16 25 32 33 35 37 39 44 46 47 49 50 52 51 50 49 47 47 47 49 51 52 52 53 53 52 51 50 49 48 47 46 44 43 41 40 38 37 36 35 34 33 32 32 32 32 32 31 31 31 30
3 1 1 4 4 7 15 16 10 7 6 5 3 2 2 2 3 4 5 4 4 4 3 3 5 7 6 6 7 9 9 10 13 13 11 16 25 31 34 36 38 41 45 46 47 48 49 51 50 48 47 48 49 49 50 51 52 53 53 53 52 52 51 50 48 47 46 45 44 42 41 39 38 37 36 35 34 33 32 32 31 31 32 31 30 30
5 1 2 4 5 7 12 10 4 2 1 1 1 4 4 3 2 2 5 4 4 4 4 4 7 7 5 4 5 6 6 6 10 14 14 16 22 29 33 35 35 39 42 44 45 46 47 46 45 44 46 48 49 49 50 51 52 52 53 52 53 52 52 50 49 48 47 47 45 43 42 41 40 39 38 37 35 33 32 31 31 31 32 31 31 30
4 0 1 3 3 5 5 2 1 4 5 3 3 5 4 6 9 7 4 2 3 7 8 7 9 6 2 2 2 4 6 5 7 11 15 16 19 25 33 37 38 39 41 42 44 44 42 41 42 44 47 49 50 51 51 51 52 52 53 53 53 52 51 51 49 49 48 47 46 45 44 43 42 41 40 38 36 34 33 32 31 31 32 32 32 31
2 2 2 3 2 2 3 2 0 4 6 5 6 8 8 9 10 6 2 1 4 6 7 7 8 4 2 1 3 3 4 5 7 9 13 17 20 21 26 34 38 39 41 42 43 43 42 42 44 47 49 50 52 52 51 51 52 52 52 52 52 51 51 51 50 49 49 48 47 47 45 44 43 42 40 39 36 34 33 32 32 31 32 33 33 32
1 1 1 4 5 5 4 2 2 4 6 8 12 15 13 8 6 3 1 2 3 3 5 8 8 5 5 5 5 6 6 7 7 7 9 17 23 24 24 31 37 41 43 45 45 44 43 44 45 48 50 51 52 52 52 51 51 52 52 52 51 51 50 50 49 49 49 48 48 47 46 44 43 41 40 38 36 34 33 32 32 32 32 33 33 33
1 2 2 6 6 7 7 6 6 7 8 10 14 16 15 12 7 4 6 6 2 1 6 7 6 9 12 9 8 9 10 8 7 8 11 17 22 26 27 29 35 40 43 44 44 44 44 46 47 48 50 51 51 51 51 50 50 51 51 51 50 50 50 49 49 49 49 49 48 47 46 44 41 40 38 37 36 34 33 32 32 32 32 33 33 34
1 2 3 4 5 7 7 6 8 9 9 10 12 14 16 14 11 8 9 9 6 4 5 6 6 12 15 10 8 9 9 8 9 13 18 22 24 28 30 30 32 38 42 42 43 44 46 48 48 48 50 50 50 51 49 48 49 49 49 50 49 49 49 49 48 48 48 48 48 47 45 43 41 40 39 38 37 36 34 32 31 31 32 33 34 34
1 3 3 4 4 5 6 7 8 8 7 9 11 13 14 14 14 13 13 12 11 9 9 11 12 15 13 7 4 6 6 6 10 12 16 20 24 27 29 31 33 37 41 44 45 46 48 50 50 49 49 50 50 50 50 48 49 49 49 49 49 49 49 48 48 48 48 48 48 46 44 43 42 41 40 39 38 36 34 33 32 32 32 33 34 34
1 2 2 2 3 4 5 5 5 5 7 10 13 12 11 11 11 10 9 8 8 9 11 14 15 13 6 5 7 8 7 6 6 9 11 14 18 21 25 30 34 36 40 43 45 47 49 49 49 48 47 49 51 51 51 50 50 50 49 49 49 49 48 48 47 47 47 47 47 45 45 44 43 42 41 40 39 37 35 34 33 32 32 32 33 34
1 2 4 3 2 3 2 1 4 8 8 9 9 9 7 6 7 6 4 3 3 5 7 9 10 8 6 9 10 8 8 8 6 10 15 18 16 15 23 27 31 34 38 41 44 46 48 48 47 47 47 49 51 51 51 50 49 49 49 49 49 48 47 47 46 46 46 46 45 45 44 43 43 42 41 40 39 38 36 35 34 33 32 32 33 33
1 1 3 2 2 4 1 2 7 8 5 4 4 2 4 3 6 7 4 6 6 3 4 5 6 6 9 10 8 5 6 7 7 11 15 20 20 14 18 22 27 33 37 42 44 46 48 48 47 49 49 50 51 52 52 51 50 50 50 49 48 47 47 46 45 45 44 44 44 44 43 43 42 42 41 40 39 38 37 36 35 34 33 32 32 32
3 2 3 2 2 3 3 5 5 2 2 3 5 4 4 2 5 9 6 7 9 5 3 5 6 9 11 8 5 3 4 7 9 14 17 19 21 16 14 18 22 28 33 39 43 46 48 48 48 49 49 50 50 51 51 50 50 49 48 46 46 46 45 45 44 44 43 43 43 43 42 42 42 41 40 39 38 37 37 37 36 34 33 32 32 33
3 4 3 2 2 3 3 4 0 5 2 2 3 5 7 3 5 11 8 4 12 12 10 9 9 11 11 9 5 1 4 7 13 21 24 22 22 16 10 15 19 24 30 35 39 43 45 46 47 47 47 48 48 48 48 47 46 46 45 44 44 44 44 43 43 42 42 42 42 42 41 41 41 40 40 39 38 38 38 37 36 35 34 33 33 33
4 4 3 2 2 1 2 1 3 4 3 3 0 5 9 5 7 11 5 4 13 15 14 14 14 14 12 10 11 8 5 5 12 24 28 24 22 18 7 9 16 22 29 33 37 40 42 44 45 46 46 46 46 45 46 46 45 45 44 43 43 43 42 42 42 41 41 41 41 40 40 40 40 39 39 38 39 39 39 38 36 35 34 34 34 33
6 5 3 3 3 1 0 2 2 4 4 2 2 5 7 4 6 8 4 3 11 15 16 15 15 16 13 12 15 13 9 5 8 18 27 26 22 18 9 4 13 18 23 29 33 35 37 40 41 42 42 43 43 43 43 43 44 44 43 41 41 41 41 41 41 40 40 40 39 38 38 38 37 37 37 38 39 39 37 36 35 34 34 34 34 34
7 6 4 3 2 2 1 1 2 3 2 2 2 6 7 7 8 6 5 3 9 17 20 17 15 17 15 13 14 10 5 4 7 11 21 26 23 17 11 2 10 15 18 22 27 30 32 35 36 37 38 38 39 38 39 41 42 41 41 41 40 40 40 40 40 39 39 38 36 35 35 35 34 34 35 36 37 35 33 32 32 31 31 33 33 32
10 7 4 3 3 1 2 1 2 3 4 1 4 8 10 10 8 3 3 0 9 19 24 20 16 17 16 14 12 7 4 6 4 7 18 24 22 19 14 7 9 15 17 19 23 26 29 31 32 32 33 33 33 33 34 36 38 39 40 39 39 39 39 39 38 36 35 33 32 32 32 32 32 32 33 34 34 32 30 29 28 28 29 31 31 29
10 7 4 5 4 2 2 2 2 3 3 4 6 11 16 14 5 2 3 2 10 19 25 22 18 19 20 18 13 9 5 4 3 9 20 23 22 21 18 13 12 15 18 18 20 22 24 27 28 28 28 28 28 29 30 32 34 35 36 36 37 38 37 35 33 31 30 30 30 30 31 31 31 31 32 32 31 29 28 27 27 28 29 30 30 28
5 5 4 5 4 4 4 3 3 3 2 5 9 16 19 11 1 3 2 3 11 19 24 23 21 23 25 20 14 9 8 12 15 19 25 27 25 24 22 19 17 18 20 21 21 22 22 23 24 24 25 24 24 25 27 28 30 31 32 33 34 34 32 30 28 28 28 28 29 30 31 31 32 32 31 31 30 29 29 28 28 28 29 29 29 29
5 5 3 4 4 3 3 3 4 3 1 7 14 17 14 4 2 2 4 7 13 18 23 26 24 26 27 21 15 16 20 26 29 27 28 29 28 27 25 24 24 23 22 23 23 24 24 25 25 25 24 24 24 24 25 26 28 28 29 30 29 28 27 27 27 26 26 27 28 29 30 31 32 32 31 31 31 32 31 29 29 29 29 29 29 30
2 3 3 3 3 2 3 3 3 1 4 14 16 11 8 5 3 7 9 12 17 19 23 27 27 28 28 24 23 28 32 32 31 30 30 30 29 28 27 27 28 27 27 27 27 26 26 26 26 25 25 25 25 25 25 25 27 27 27 27 26 25 25 25 26 26 26 27 27 28 29 31 32 32 32 32 32 32 31 30 30 30 30 31 31 31
2 0 1 1 0 1 3 1 0 1 7 15 10 5 8 9 9 13 13 13 19 22 24 27 29 30 30 28 28 31 33 32 32 32 32 31 30 29 28 28 29 29 28 29 28 28 28 28 27 25 24 23 24 25 25 25 26 26 27 26 25 24 23 23 24 25 25 26 26 27 28 29 29 30 30 30 31 32 32 32 32 32 32 32 32 33
3 3 1 2 2 2 3 4 1 1 5 11 14 15 14 13 11 14 17 16 20 24 24 26 31 33 32 31 31 30 30 32 32 32 32 31 30 29 27 26 27 27 27 27 27 27 27 28 28 28 28 26 24 24 24 24 25 26 25 24 24 23 23 22 23 23 23 23 24 24 25 26 26 27 27 28 29 30 31 31 32 33 33 33 33 34
4 6 2 2 4 6 7 7 2 4 5 11 17 17 15 13 11 13 19 21 22 23 23 24 30 33 32 32 34 32 30 31 32 32 32 31 30 28 26 25 24 24 24 24 24 23 23 24 26 27 28 28 26 26 25 24 24 24 24 23 22 21 21 20 19 20 21 20 21 21 21 22 23 24 24 25 26 27 27 27 28 30 30 31 33 34
4 7 4 2 5 5 3 3 4 10 7 4 11 13 12 12 12 13 17 21 21 21 21 21 26 30 30 32 35 34 32 32 33 31 30 29 28 27 26 23 21 21 21 22 21 20 20 20 21 23 24 24 23 24 25 24 24 24 23 23 21 21 20 20 20 20 21 21 20 20 20 21 21 21 22 23 24 25 25 25 26 27 28 30 31 32
6 8 6 4 5 4 4 4 12 17 10 3 10 11 11 14 15 13 14 17 17 17 18 17 20 26 28 30 32 33 33 34 33 31 29 28 27 26 25 23 21 18 18 19 19 17 17 18 18 19 20 20 19 19 20 22 22 22 21 22 21 19 19 19 19 20 20 21 22 22 22 22 21 21 21 21 23 25 26 26 26 26 27 27 27 28
8 8 5 6 7 6 6 5 13 15 5 7 7 10 14 17 20 17 16 16 13 14 17 16 15 19 24 26 27 29 30 32 32 29 28 27 26 26 24 22 20 18 16 16 16 15 15 16 17 17 17 17 16 14 15 16 17 16 17 19 19 18 18 18 17 17 17 18 19 20 21 22 22 21 21 22 23 25 26 26 26 26 25 24 24 24
8 6 5 6 5 4 3 6 10 9 4 5 14 21 19 18 20 20 21 20 14 14 18 17 13 15 19 21 21 23 26 28 29 28 26 25 25 25 24 22 21 19 16 14 13 13 14 15 17 17 17 17 16 15 13 12 11 11 11 13 14 15 15 16 15 15 15 14 14 15 16 18 20 21 22 22 23 24 25 26 25 25 23 23 22 22
10 8 7 7 6 7 11 15 15 12 12 16 22 24 21 19 19 22 24 22 16 15 16 15 14 16 18 18 18 19 22 24 25 25 25 24 22 21 21 22 22 20 17 14 12 11 12 13 15 17 18 19 18 17 16 14 12 9 7 7 9 11 12 13 13 12 12 12 11 11 12 14 16 18 19 20 21 21 22 23 24 23 22 21 20 20
Wind_Direction
173 167 205 211 212 202 205 204 201 232 228 179 173 195 213 219 255 251 253 274 174 186 228 208 214 216 188 188 185 181 184 187 186 184 186 186 187 190 193 195 198 201 205 205 205 206 207 207 208 209 210 213 214 215 216 216 217 217 217 217 217 217 218 218 218 217 217 217 215 213 213 213 213 213 213 214 213 212 214 214 209 205 205 207 211 213
170 196 225 214 206 201 202 191 190 226 248 265 253 248 265 234 251 259 250 286 192 179 248 223 216 225 199 190 188 180 183 192 189 187 190 189 190 193 195 198 200 202 203 203 205 206 207 208 208 209 210 212 214 215 216 216 217 218 218 218 218 218 219 219 220 219 220 219 217 216 215 214 214 214 215 216 214 213 214 215 213 209 208 211 214 217
180 225 227 203 177 187 189 178 183 209 225 242 249 251 271 237 251 272 254 270 210 191 256 223 208 230 212 194 187 182 188 196 195 193 192 190 190 195 198 200 200 200 200 202 205 206 207 208 208 209 211 212 215 216 217 217 217 218 218 219 220 220 220 220 221 221 221 221 220 220 218 216 216 217 218 219 217 216 215 216 216 214 213 214 216 220
194 234 216 168 161 183 189 184 179 197 215 217 221 230 245 219 202 264 275 293 254 222 232 202 213 237 210 193 198 196 197 199 200 199 196 193 193 196 200 200 198 197 199 201 204 206 207 208 209 209 210 212 214 216 217 217 216 217 218 219 220 220 221 221 221 222 222 223 223 222 220 219 219 220 220 220 220 218 217 217 218 217 217 217 218 221
224 254 173 158 177 186 191 195 184 191 213 215 215 220 224 218 211 251 306 328 322 296 234 140 272 289 190 182 213 208 205 209 207 203 202 201 201 200 200 200 200 200 200 201 203 205 207 208 209 210 211 211 213 215 217 217 217 217 218 219 220 221 222 222 222 223 223 222 223 222 220 220 222 222 220 219 219 218 219 219 219 220 220 220 220 220
240 249 161 166 184 186 195 202 195 192 206 228 221 215 213 212 219 260 319 350 357 317 286 142 230 289 222 191 208 198 201 216 208 202 207 207 204 203 203 202 202 203 203 204 204 206 207 208 209 210 211 212 213 215 217 218 218 218 218 219 221 222 223 223 223 224 223 222 222 221 220 220 220 221 220 219 220 221 222 222 221 221 222 223 222 218
230 215 171 179 183 181 199 210 199 184 197 238 209 194 201 193 191 218 282 305 220 251 273 135 170 265 302 219 212 188 194 209 202 203 211 207 202 203 206 205 203 203 204 205 207 207 207 208 209 210 211 212 214 216 217 218 219 219 219 220 221 222 223 223 223 223 224 223 222 222 221 221 221 221 221 222 223 225 226 226 225 223 224 225 224 219
187 188 184 192 181 179 198 209 195 175 195 234 172 159 184 185 195 205 192 218 233 268 284 281 147 234 290 254 219 187 199 209 201 210 212 204 204 206 209 207 205 205 204 204 206 207 207 208 209 211 212 214 215 215 216 217 219 219 220 220 220 221 222 223 223 223 223 223 223 222 221 222 223 225 225 224 225 226 227 228 227 226 226 227 226 223
176 187 187 187 188 190 202 205 188 174 201 224 157 150 169 185 200 193 183 226 242 337 281 260 151 208 273 270 253 184 203 212 207 213 210 202 207 209 210 210 207 207 206 206 206 207 208 209 211 212 213 214 214 214 216 218 219 220 220 221 220 221 222 223 223 223 222 222 222 222 222 223 225 227 228 228 227 227 228 229 228 228 227 227 227 225
192 185 184 186 197 201 207 204 176 181 209 198 151 146 148 172 183 169 181 208 189 222 251 241 167 199 270 273 268 179 202 215 213 217 210 205 209 209 210 210 209 208 208 209 209 208 209 210 212 214 213 214 214 214 216 218 220 220 221 221 221 221 221 222 223 223 222 222 222 223 224 225 225 227 228 229 230 230 230 230 229 228 228 227 227 226
227 187 185 195 205 189 192 199 173 187 198 151 153 182 82 124 126 145 177 150 178 240 244 226 174 184 254 262 233 202 203 205 208 218 213 210 212 212 212 211 208 208 209 210 210 210 210 210 212 213 213 214 214 214 216 217 219 221 221 222 222 223 223 223 223 223 223 223 224 225 225 226 227 228 229 229 231 231 231 232 231 229 228 229 228 228
251 209 191 206 202 179 162 200 197 194 189 154 163 175 202 311 69 112 3 128 214 241 242 214 169 182 232 252 232 223 222 204 202 214 209 207 212 213 214 212 209 209 210 210 209 210 210 209 210 211 212 213 213 214 214 216 218 220 222 222 223 223 223 224 224 223 223 224 225 226 226 227 228 229 230 231 232 232 232 232 232 230 230 230 230 229
241 223 223 234 202 182 166 196 204 197 192 178 163 149 177 225 157 206 224 202 228 244 239 179 154 193 232 244 239 232 231 214 207 215 210 205 208 210 212 211 210 210 209 208 209 209 209 209 209 209 210 212 212 213 214 215 217 218 221 222 223 224 223 224 225 224 224 224 225 226 226 227 228 230 232 233 234 234 233 233 233 232 231 231 230 229
224 212 222 229 209 185 178 188 192 189 190 189 181 166 177 182 185 212 221 237 246 258 251 159 149 226 245 239 233 228 231 223 214 220 218 213 212 211 212 210 209 209 208 208 208 209 210 210 210 209 209 211 211 213 214 214 216 217 220 222 223 224 224 225 225 225 226 225 225 226 226 227 228 229 231 233 235 235 234 234 233 233 233 234 233 231
190 223 220 207 236 197 189 193 180 164 178 193 185 171 178 176 184 200 199 218 233 252 258 168 161 208 193 217 225 218 227 224 218 224 222 220 219 216 213 210 209 208 208 209 209 209 212 212 210 210 210 211 211 213 214 214 216 217 219 221 222 224 224 225 225 225 226 226 226 227 227 228 228 229 231 232 234 235 234 234 233 234 235 236 237 236
242 265 264 315 325 292 214 204 167 150 188 198 172 176 199 182 168 191 200 191 179 231 247 201 202 218 208 256 251 222 228 219 217 225 222 221 221 213 207 206 208 209 208 210 210 212 213 212 211 210 210 211 211 212 213 214 215 217 219 221 223 224 225 225 226 226 227 227 227 228 228 229 229 229 231 233 234 235 235 235 234 235 236 238 240 239
340 276 305 332 322 320 345 296 187 170 184 179 174 193 195 159 153 199 241 189 125 224 244 221 240 259 250 273 275 219 228 220 216 225 223 221 213 200 199 203 205 208 208 209 212 214 214 211 212 212 211 212 211 211 213 214 215 217 219 221 222 224 225 226 227 227 227 228 228 230 230 230 230 230 231 232 234 235 235 236 236 237 239 239 240 240
6 281 297 317 287 317 349 330 251 188 164 151 190 190 152 114 154 184 237 250 208 233 264 254 237 217 191 252 269 173 207 225 222 223 227 223 204 194 201 204 204 207 207 209 212 215 214 212 212 212 212 213 212 212 213 214 215 217 219 221 222 223 225 226 227 228 228 228 228 230 230 231 232 231 231 232 233 235 236 237 237 238 238 238 238 239
19 294 297 294 242 314 338 334 266 212 187 179 177 167 153 160 180 179 210 221 215 234 271 276 261 223 198 227 224 186 203 219 220 222 229 225 201 198 206 206 206 206 206 208 211 213 213 212 213 213 213 214 213 213 213 214 215 216 218 221 223 225 226 227 228 228 229 229 229 230 231 232 233 233 233 232 233 235 236 236 237 237 237 237 238 238
355 9 285 329 360 323 318 266 213 228 219 210 161 158 169 185 186 185 193 190 199 221 243 274 289 259 227 214 191 197 206 207 208 212 221 225 214 207 207 207 207 205 205 208 210 211 212 214 214 214 214 214 213 213 212 212 213 215 217 220 222 224 225 227 228 228 229 229 230 231 231 232 233 234 234 233 233 234 235 236 237 237 238 238 238 238
3 78 264 315 348 328 275 196 163 147 231 231 202 176 183 196 187 198 209 174 170 191 204 245 264 255 248 210 187 200 206 203 202 201 207 218 219 216 211 208 207 205 206 209 210 210 212 214 215 215 214 214 212 211 211 212 213 215 216 218 220 222 224 225 226 227 228 229 230 231 231 232 233 233 234 234 235 235 236 237 238 238 240 240 239 238
347 83 269 305 336 318 270 284 318 10 352 254 252 231 201 195 157 185 225 214 181 200 187 192 250 262 256 214 194 204 208 205 201 198 203 211 213 217 216 212 209 208 209 211 211 211 212 213 214 213 212 210 210 210 211 212 212 213 215 217 219 221 223 225 226 227 228 229 230 231 231 232 233 234 235 235 236 237 237 237 238 239 241 241 239 238
297 122 306 284 277 264 268 276 282 284 271 239 248 308 303 268 141 175 227 213 193 220 176 167 256 264 240 211 204 208 211 214 209 198 200 210 210 214 218 215 212 211 213 213 213 212 213 213 212 211 209 208 209 211 211 210 211 212 214 216 217 219 222 224 226 228 228 229 230 231 231 232 233 234 235 236 237 239 239 239 239 240 240 240 239 238
319 14 342 301 284 272 269 270 283 302 272 176 310 357 350 322 340 283 252 197 186 212 176 200 252 249 225 219 226 233 238 237 223 209 206 212 209 210 217 219 215 214 215 215 214 214 213 212 209 207 207 207 208 209 210 209 210 211 213 215 216 218 221 223 225 227 228 228 230 231 231 232 233 234 235 236 238 239 241 241 241 241 240 239 239 238
329 156 58 9 348 313 288 269 11 9 23 20 322 324 319 330 342 323 268 175 217 214 176 194 242 240 224 266 283 282 281 280 260 236 227 225 215 207 212 217 218 216 216 215 214 213 211 208 206 206 206 206 207 209 210 209 209 210 212 214 216 218 220 221 223 225 226 228 229 230 231 232 233 234 235 236 238 239 241 242 243 242 241 240 240 239
323 177 100 93 133 228 234 190 200 324 333 323 303 307 317 337 343 329 311 293 253 220 175 200 232 217 127 255 253 249 250 262 274 265 248 241 236 222 212 214 218 218 216 214 213 211 208 207 206 206 206 206 207 208 209 208 208 210 211 214 216 218 218 219 221 223 224 226 228 229 231 232 233 235 236 237 238 239 241 242 243 243 242 241 241 240
289 220 163 169 184 222 242 254 259 274 293 300 303 306 308 311 312 305 273 246 234 194 199 228 243 247 237 235 242 241 228 229 246 253 244 237 238 237 226 218 219 219 217 215 212 209 206 206 207 206 206 206 206 207 208 208 208 209 210 212 215 217 217 218 219 221 223 226 227 229 231 233 234 235 236 237 239 240 241 243 243 243 242 242 242 242
286 292 233 203 212 238 257 279 283 282 285 286 292 296 296 294 289 254 230 243 272 216 229 239 255 263 254 227 208 233 241 234 227 224 232 238 241 245 241 229 221 219 217 214 211 207 204 205 207 206 205 205 205 206 208 207 208 209 210 212 213 214 216 217 218 220 223 225 227 229 231 233 234 236 237 238 238 240 241 242 243 243 242 243 242 242
217 275 243 218 234 244 251 270 276 278 277 271 272 277 280 285 283 261 245 248 250 245 265 278 250 249 259 249 214 228 239 231 223 223 233 243 248 249 245 233 221 216 214 211 208 205 204 205 207 206 204 204 203 204 206 206 206 208 210 211 213 214 216 218 219 221 223 224 227 230 231 233 234 235 236 237 237 238 240 241 242 243 243 242 242 242
239 272 245 235 257 251 248 264 270 272 276 275 271 268 272 279 277 267 257 246 238 242 271 282 266 254 261 276 276 274 279 260 250 246 242 243 247 247 240 231 221 213 208 207 205 204 204 206 207 205 203 202 202 203 204 205 206 207 209 211 212 214 216 218 220 221 223 225 227 230 231 231 233 234 234 236 236 237 238 239 240 241 242 242 242 242
15 291 297 303 283 262 251 256 263 270 280 281 277 274 277 285 289 280 263 252 244 240 250 260 265 265 279 0 341 315 334 340 304 300 289 270 260 248 233 224 218 209 203 204 203 203 204 205 205 203 201 201 202 203 204 206 207 208 209 210 212 214 216 217 219 221 223 226 228 228 229 230 232 233 234 235 236 236 237 238 239 241 242 242 242 243
69 304 330 1 304 274 246 252 297 299 290 271 267 282 289 303 331 327 299 310 292 253 256 258 257 270 319 345 327 320 7 24 5 346 333 321 302 254 225 217 212 203 200 200 201 202 202 203 203 201 201 203 203 203 205 206 206 206 208 210 212 213 214 216 218 221 224 226 227 228 229 231 232 233 235 236 236 237 237 238 240 241 242 243 243 243
157 292 314 307 267 272 263 328 317 311 299 243 211 286 301 308 350 335 324 3 350 287 261 258 255 297 318 318 315 332 24 36 21 4 349 337 324 279 231 218 210 203 200 200 200 201 202 202 203 203 204 205 205 206 207 206 207 209 210 211 211 211 212 215 218 221 223 226 227 229 230 232 233 234 236 237 237 238 239 239 240 241 242 243 244 244
194 220 275 269 258 269 288 325 321 250 223 216 150 71 342 313 6 341 322 2 1 336 287 273 279 309 316 315 322 353 45 55 37 22 13 358 342 310 251 226 215 207 204 203 202 202 202 203 204 205 206 207 208 208 207 207 209 210 209 208 208 210 212 215 218 221 224 226 228 230 231 232 234 236 237 238 238 238 239 240 241 242 243 244 244 244
187 215 259 258 234 269 317 353 301 181 211 271 149 50 4 9 14 338 309 2 13 357 344 335 321 317 319 313 296 315 57 52 42 30 22 13 1 340 272 229 219 211 206 205 203 202 201 202 202 204 206 208 207 206 204 205 206 207 206 207 209 211 213 216 218 222 225 227 229 230 232 234 235 237 238 238 238 239 240 240 241 242 243 244 244 244
179 207 244 245 224 283 347 98 187 215 302 325 157 25 14 24 13 350 322 17 18 5 353 345 330 322 323 310 291 287 307 353 34 31 20 14 11 2 329 227 218 215 211 207 205 203 202 202 203 204 205 205 205 204 203 204 205 207 208 209 210 212 214 216 219 223 226 228 230 231 233 234 235 237 238 239 239 239 240 241 242 243 243 244 245 246
177 197 229 249 215 160 184 225 265 295 312 3 30 0 358 340 339 342 299 327 10 6 353 344 333 326 324 318 311 300 289 318 23 21 12 13 15 10 1 212 205 211 212 210 207 206 204 203 204 204 204 204 204 204 204 204 205 207 208 209 211 212 213 216 219 224 227 229 231 232 233 235 236 237 238 238 239 239 241 242 243 244 244 245 245 245
180 198 204 234 227 108 92 271 311 295 225 144 352 330 325 307 308 303 255 292 6 359 348 344 338 330 324 325 327 312 295 23 29 2 1 10 17 19 21 101 179 190 201 204 204 205 204 203 203 203 203 203 203 204 204 204 206 207 208 210 211 212 214 217 221 225 228 230 232 234 235 236 237 238 238 239 239 240 242 243 243 244 244 245 245 245
186 201 203 232 256 75 108 202 255 229 212 256 327 322 317 312 316 294 215 345 2 348 343 342 340 335 328 331 351 10 50 56 44 353 1 11 20 28 37 71 142 165 180 191 198 200 201 202 202 202 202 203 203 204 204 205 207 208 209 211 212 213 215 220 224 227 229 232 234 235 236 237 238 239 239 239 240 242 243 243 244 244 245 245 246 246
186 190 205 222 231 224 201 231 259 237 256 322 335 326 317 315 337 124 173 16 348 338 339 341 339 337 331 336 5 39 55 52 44 21 22 28 35 40 47 68 107 141 158 169 182 191 195 196 197 197 199 202 204 204 204 205 207 210 212 213 214 215 219 223 227 229 231 233 235 236 237 238 239 240 240 241 242 243 244 244 245 245 245 246 247 247
183 176 200 214 218 230 221 230 270 254 279 327 324 322 318 315 21 119 138 357 331 328 338 342 339 339 341 351 17 29 25 39 49 48 44 44 46 48 55 70 92 119 139 150 162 174 181 186 189 192 195 197 199 201 201 203 206 210 213 214 215 218 223 226 228 229 231 234 235 237 239 240 241 242 243 244 245 246 246 246 246 246 247 248 249 249
169 165 190 206 210 223 202 222 274 252 345 342 329 333 342 1 104 41 28 10 343 335 343 346 345 346 348 357 19 27 34 45 49 51 50 47 46 49 57 71 84 100 118 133 146 157 166 172 177 183 186 187 190 195 197 199 203 206 209 212 216 221 224 225 227 229 231 233 236 238 240 241 243 244 245 246 247 246 247 249 249 249 249 249 250 251
151 183 195 186 197 212 196 227 272 225 342 335 329 341 21 55 15 345 357 2 356 352 350 349 350 351 350 357 17 30 37 42 42 46 50 48 47 50 57 68 77 87 102 115 125 136 147 154 160 167 174 179 184 189 192 195 198 201 205 208 213 217 219 222 226 227 229 232 234 237 240 242 244 246 247 248 248 248 250 251 250 250 251 250 251 252
52 274 196 166 246 182 184 215 347 229 319 337 352 47 63 57 28 5 1 358 355 355 352 349 350 352 354 1 14 27 34 36 37 43 47 46 46 49 55 64 72 80 91 101 109 119 129 134 136 141 149 160 172 181 187 191 193 195 199 203 207 211 214 218 223 225 228 231 233 235 238 240 243 246 248 249 250 250 251 252 251 252 252 252 252 252
24 343 277 231 287 310 253 264 326 28 355 24 59 73 63 58 46 19 10 8 360 353 349 347 349 355 2 6 12 21 27 29 35 42 43 43 45 46 51 60 67 74 83 91 99 107 115 120 123 127 130 136 148 161 172 183 188 188 190 195 202 208 211 215 219 223 226 229 232 234 235 237 240 243 246 247 248 249 250 250 251 252 252 252 252 252
335 334 333 248 302 314 271 246 265 16 28 62 75 71 57 52 47 19 7 7 6 359 351 349 351 357 5 10 11 15 17 20 30 38 41 42 44 45 49 56 62 69 76 82 90 97 105 112 118 123 125 128 135 145 155 168 178 180 181 185 192 200 206 210 215 220 223 225 228 230 230 231 233 234 237 240 242 244 246 247 249 250 251 252 252 252
329 342 2 342 328 331 269 218 360 345 329 72 82 69 49 30 23 15 1 359 4 2 354 355 359 1 7 12 10 10 12 14 20 27 33 37 39 41 44 47 54 64 70 73 79 88 98 105 111 117 121 125 132 141 149 158 166 171 174 179 185 192 198 204 209 214 217 219 221 223 223 224 225 224 226 230 233 237 239 240 243 245 247 248 249 250
339 347 358 346 332 313 274 312 347 337 317 128 94 63 33 2 353 359 357 354 2 359 348 354 3 0 3 8 7 5 9 12 14 17 22 26 29 33 36 39 45 57 67 71 75 80 87 92 97 105 113 117 124 135 146 154 160 163 166 174 182 188 191 196 202 207 212 215 217 218 219 220 220 219 220 222 225 229 233 234 236 240 242 245 247 249
332 338 343 331 317 286 270 331 0 355 9 114 80 13 356 338 328 329 332 334 344 347 340 346 360 355 353 360 2 360 3 9 12 14 18 19 19 21 26 32 40 49 58 66 71 72 75 82 87 92 98 103 110 122 136 147 156 162 165 171 178 181 183 185 188 192 199 204 209 212 215 217 217 216 217 219 221 224 227 229 232 236 240 245 248 251
342 337 337 330 312 280 295 350 356 344 309 272 300 309 314 315 312 311 312 312 317 330 334 338 346 343 341 348 355 354 354 2 10 13 16 19 15 13 15 20 29 41 50 57 64 67 69 74 79 83 87 91 97 105 112 123 138 152 165 176 182 184 185 184 183 186 190 193 198 204 208 211 214 215 216 218 221 223 225 227 228 230 235 241 246 250
337 322 320 315 293 283 296 305 306 294 275 277 287 292 295 297 294 293 295 296 295 305 320 327 329 328 331 338 349 350 348 355 5 8 11 15 14 12 14 13 14 23 36 44 50 56 63 72 76 78 82 85 88 91 94 98 107 120 143 173 190 196 196 193 189 188 191 194 198 203 206 207 210 213 216 219 222 224 226 227 227 227 231 236 242 247
Height
1475 1481 1481 1477 1474 1474 1476 1478 1481 1481 1481 1484 1486 1487 1487 1487 1486 1480 1477 1472 1470 1479 1480 1477 1478 1477 1478 1478 1475 1476 1479 1480 1482 1484 1486 1489 1491 1493 1495 1496 1497 1498 1501 1505 1510 1513 1516 1518 1521 1523 1525 1528 1530 1532 1535 1537 1539 1542 1544 1547 1550 1553 1555 1557 1559 1561 1563 1565 1567 1569 1570 1572 1574 1576 1578 1579 1581 1582 1584 1586 1587 1588 1589 1591 1592 1593
1475 1479 1473 1467 1470 1473 1475 1478 1480 1482 1482 1484 1486 1489 1488 1488 1485 1478 1476 1472 1469 1477 1479 1475 1478 1477 1475 1475 1473 1475 1478 1478 1479 1481 1483 1485 1488 1490 1491 1492 1493 1496 1501 1506 1509 1511 1514 1516 1519 1521 1523 1525 1527 1529 1532 1534 1536 1539 1542 1545 1547 1550 1553 1555 1557 1559 1561 1563 1565 1567 1569 1571 1573 1575 1576 1578 1579 1582 1583 1585 1586 1588 1589 1590 1591 1592
1477 1472 1463 1465 1471 1473 1475 1477 1479 1481 1483 1485 1487 1489 1491 1487 1484 1479 1474 1472 1471 1476 1478 1475 1478 1477 1472 1471 1471 1471 1472 1472 1472 1474 1476 1479 1483 1486 1487 1488 1491 1495 1500 1503 1505 1508 1510 1513 1516 1519 1520 1522 1524 1526 1529 1532 1534 1537 1539 1542 1545 1548 1550 1552 1555 1557 1559 1562 1565 1567 1569 1571 1573 1574 1576 1577 1579 1581 1583 1584 1585 1587 1588 1589 1590 1591
1475 1464 1458 1466 1470 1472 1475 1476 1477 1480 1482 1484 1485 1489 1490 1484 1484 1483 1477 1474 1472 1473 1474 1474 1476 1475 1471 1471 1471 1468 1467 1467 1469 1470 1473 1475 1476 1478 1480 1484 1489 1492 1495 1498 1502 1505 1507 1510 1513 1514 1516 1519 1522 1524 1526 1529 1532 1534 1536 1539 1542 1545 1547 1550 1553 1555 1558 1561 1564 1566 1568 1570 1572 1573 1575 1576 1578 1580 1581 1583 1584 1585 1587 1588 1589 1590
1465 1456 1456 1464 1468 1470 1474 1475 1476 1480 1482 1481 1481 1484 1485 1482 1482 1483 1479 1476 1473 1472 1471 1473 1480 1477 1472 1475 1472 1468 1468 1469 1470 1473 1475 1476 1475 1477 1481 1484 1487 1488 1490 1494 1497 1500 1503 1505 1508 1511 1514 1517 1519 1521 1523 1525 1528 1531 1534 1537 1539 1542 1545 1548 1550 1554 1557 1560 1562 1564 1566 1568 1570 1572 1573 1574 1576 1577 1579 1581 1582 1584 1586 1587 1588 1589
1460 1455 1456 1461 1464 1467 1471 1472 1473 1476 1482 1482 1477 1476 1479 1480 1481 1481 1480 1479 1482 1483 1473 1474 1489 1484 1471 1473 1471 1468 1471 1471 1471 1473 1473 1474 1476 1479 1481 1482 1484 1486 1488 1490 1492 1495 1498 1502 1506 1509 1512 1514 1515 1517 1520 1523 1526 1529 1532 1535 1538 1540 1543 1545 1548 1551 1554 1557 1559 1561 1563 1565 1566 1568 1570 1571 1573 1576 1577 1579 1581 1583 1585 1586 1588 1588
1456 1455 1457 1459 1461 1465 1469 1471 1469 1471 1481 1483 1473 1470 1474 1477 1479 1481 1481 1483 1489 1489 1475 1472 1489 1489 1474 1471 1468 1466 1469 1468 1469 1469 1468 1470 1474 1476 1476 1477 1480 1482 1485 1488 1490 1493 1497 1500 1504 1506 1508 1510 1512 1514 1518 1522 1525 1528 1530 1533 1536 1538 1540 1543 1546 1549 1552 1554 1557 1559 1561 1563 1564 1565 1567 1569 1572 1574 1576 1578 1580 1582 1583 1585 1587 1588
1450 1454 1457 1458 1460 1463 1467 1467 1464 1466 1477 1477 1467 1467 1473 1475 1479 1480 1481 1485 1485 1483 1478 1473 1480 1488 1482 1469 1463 1464 1466 1467 1468 1466 1465 1467 1470 1470 1471 1473 1476 1478 1480 1483 1487 1490 1493 1496 1498 1501 1504 1506 1509 1513 1516 1519 1522 1525 1528 1531 1534 1536 1539 1541 1544 1546 1549 1552 1554 1557 1559 1561 1562 1564 1566 1569 1571 1573 1575 1577 1579 1580 1582 1584 1586 1587
1445 1451 1454 1456 1460 1462 1459 1458 1458 1462 1470 1468 1462 1465 1470 1472 1475 1477 1480 1484 1481 1485 1488 1478 1476 1490 1487 1466 1459 1463 1466 1469 1467 1462 1462 1463 1464 1465 1467 1469 1472 1474 1477 1479 1483 1486 1488 1491 1494 1497 1500 1504 1508 1512 1514 1517 1520 1523 1526 1529 1532 1534 1537 1539 1542 1544 1547 1550 1552 1554 1557 1558 1561 1563 1565 1568 1570 1572 1573 1575 1577 1579 1581 1583 1584 1586
1443 1445 1448 1452 1456 1456 1453 1452 1455 1459 1463 1461 1461 1464 1466 1470 1472 1475 1480 1481 1483 1492 1492 1480 1476 1490 1489 1467 1460 1465 1465 1466 1463 1457 1458 1458 1458 1460 1461 1464 1468 1471 1475 1477 1479 1482 1485 1488 1491 1495 1499 1503 1507 1509 1512 1515 1518 1521 1524 1527 1529 1532 1535 1537 1540 1542 1545 1547 1550 1552 1554 1556 1559 1561 1564 1566 1568 1570 1572 1574 1576 1577 1579 1581 1583 1584
1441 1441 1444 1445 1447 1449 1450 1451 1452 1455 1457 1458 1462 1466 1468 1471 1472 1475 1477 1479 1490 1494 1484 1475 1473 1484 1489 1469 1458 1461 1456 1454 1455 1454 1455 1454 1455 1457 1458 1461 1465 1469 1471 1473 1476 1480 1484 1487 1490 1495 1498 1501 1504 1507 1510 1512 1515 1518 1521 1524 1526 1529 1532 1535 1537 1540 1543 1545 1547 1549 1552 1554 1557 1559 1561 1564 1565 1568 1570 1572 1574 1576 1578 1579 1581 1583
1442 1443 1442 1440 1440 1444 1448 1452 1452 1451 1454 1458 1463 1468 1475 1479 1477 1481 1482 1484 1496 1493 1475 1470 1469 1479 1486 1467 1452 1451 1445 1444 1448 1448 1450 1450 1451 1453 1455 1458 1461 1464 1466 1470 1475 1478 1482 1486 1488 1492 1494 1497 1501 1504 1506 1509 1512 1515 1518 1521 1524 1527 1530 1532 1535 1538 1540 1543 1545 1547 1550 1552 1555 1557 1559 1561 1563 1566 1568 1570 1572 1574 1576 1578 1579 1581
1444 1443 1440 1439 1438 1440 1447 1453 1455 1454 1455 1460 1464 1470 1483 1492 1491 1495 1495 1490 1492 1484 1469 1467 1471 1476 1474 1456 1446 1446 1441 1439 1440 1439 1441 1443 1444 1446 1449 1452 1456 1459 1463 1467 1471 1474 1477 1481 1483 1486 1490 1493 1497 1499 1502 1505 1508 1511 1514 1517 1520 1523 1526 1529 1532 1535 1538 1540 1542 1545 1547 1550 1553 1555 1557 1559 1562 1564 1566 1568 1570 1572 1574 1576 1577 1578
1448 1443 1439 1440 1439 1436 1441 1450 1457 1458 1457 1461 1465 1470 1483 1495 1501 1505 1500 1492 1489 1479 1465 1463 1472 1475 1465 1447 1439 1438 1435 1434 1433 1434 1436 1437 1438 1440 1442 1447 1451 1455 1459 1462 1465 1469 1472 1474 1478 1481 1485 1489 1492 1495 1498 1502 1504 1508 1511 1514 1517 1520 1524 1527 1529 1532 1535 1538 1540 1542 1545 1547 1550 1552 1555 1557 1559 1562 1564 1566 1568 1570 1572 1574 1575 1577
1461 1454 1442 1440 1441 1437 1437 1442 1447 1451 1454 1456 1456 1463 1473 1479 1489 1497 1494 1490 1487 1478 1466 1466 1472 1470 1458 1443 1431 1427 1426 1428 1430 1431 1432 1433 1434 1437 1441 1446 1450 1453 1456 1459 1461 1464 1466 1469 1473 1478 1481 1485 1488 1491 1495 1498 1501 1504 1506 1510 1513 1517 1520 1523 1526 1529 1532 1535 1538 1540 1542 1545 1547 1550 1552 1555 1557 1559 1562 1564 1566 1568 1570 1572 1574 1576
1472 1461 1444 1440 1442 1439 1438 1436 1436 1444 1453 1452 1450 1459 1466 1463 1467 1477 1479 1476 1476 1475 1469 1466 1464 1454 1443 1433 1424 1423 1424 1424 1427 1427 1427 1430 1431 1436 1442 1445 1448 1451 1453 1456 1459 1460 1462 1466 1471 1474 1477 1481 1484 1488 1491 1493 1497 1499 1503 1506 1510 1514 1517 1521 1524 1526 1529 1533 1535 1538 1540 1543 1545 1547 1550 1552 1555 1557 1559 1562 1564 1566 1568 1570 1572 1574
1477 1462 1446 1445 1443 1438 1440 1438 1433 1439 1448 1450 1452 1456 1454 1449 1454 1469 1475 1469 1471 1479 1469 1457 1454 1446 1440 1433 1423 1423 1426 1424 1425 1425 1424 1426 1428 1433 1437 1438 1442 1445 1448 1452 1453 1455 1458 1463 1466 1469 1472 1476 1479 1483 1486 1489 1492 1495 1499 1503 1507 1511 1514 1518 1521 1524 1527 1530 1533 1535 1538 1540 1543 1545 1547 1550 1552 1555 1557 1560 1562 1564 1566 1568 1570 1572
1481 1469 1452 1449 1446 1438 1438 1438 1432 1431 1436 1445 1452 1448 1445 1450 1452 1461 1475 1475 1476 1483 1470 1454 1452 1449 1446 1440 1427 1424 1428 1426 1425 1424 1422 1423 1427 1430 1431 1432 1435 1438 1441 1445 1447 1450 1455 1459 1462 1465 1469 1472 1474 1478 1481 1485 1490 1493 1496 1499 1503 1507 1511 1514 1518 1521 1525 1527 1530 1533 1535 1538 1540 1543 1545 1548 1550 1553 1555 1557 1559 1562 1564 1566 1568 1570
1480 1475 1457 1449 1450 1444 1438 1438 1436 1431 1429 1435 1440 1437 1443 1458 1461 1460 1471 1476 1479 1483 1472 1457 1454 1448 1443 1437 1427 1425 1427 1424 1423 1423 1422 1422 1424 1426 1426 1428 1431 1433 1437 1441 1443 1448 1452 1455 1459 1462 1465 1468 1471 1475 1479 1483 1488 1491 1494 1497 1500 1504 1508 1512 1516 1519 1522 1525 1528 1531 1533 1536 1538 1541 1543 1546 1548 1551 1552 1555 1557 1559 1561 1563 1566 1568
1476 1479 1466 1450 1450 1449 1441 1440 1440 1435 1431 1431 1433 1435 1437 1446 1453 1455 1459 1462 1470 1479 1473 1463 1458 1446 1434 1427 1422 1422 1421 1419 1421 1421 1420 1419 1418 1420 1422 1424 1427 1430 1434 1436 1439 1443 1446 1450 1453 1456 1460 1464 1467 1472 1476 1481 1485 1488 1491 1494 1498 1502 1505 1509 1512 1515 1519 1522 1525 1528 1531 1534 1536 1539 1541 1544 1546 1548 1550 1552 1555 1557 1559 1561 1563 1565
1475 1480 1476 1459 1452 1451 1444 1442 1442 1441 1440 1439 1439 1441 1439 1438 1442 1448 1449 1447 1455 1468 1469 1467 1462 1442 1424 1418 1416 1414 1413 1413 1414 1415 1416 1414 1413 1415 1417 1419 1423 1426 1428 1431 1433 1437 1441 1444 1448 1451 1456 1461 1466 1471 1475 1478 1481 1484 1488 1491 1494 1498 1502 1505 1509 1512 1516 1519 1522 1525 1528 1531 1533 1536 1539 1541 1543 1545 1548 1550 1552 1554 1557 1558 1561 1563
1476 1480 1481 1472 1466 1461 1451 1444 1444 1446 1449 1450 1447 1442 1439 1439 1442 1452 1457 1447 1444 1452 1455 1460 1461 1439 1416 1412 1411 1408 1407 1406 1406 1408 1410 1409 1409 1411 1412 1415 1418 1420 1423 1425 1428 1432 1436 1439 1443 1448 1453 1459 1463 1467 1470 1473 1477 1481 1484 1487 1491 1495 1497 1501 1505 1509 1512 1516 1519 1522 1525 1528 1531 1534 1536 1538 1541 1542 1545 1547 1549 1552 1554 1556 1558 1560
1475 1478 1480 1478 1472 1464 1451 1443 1443 1447 1448 1449 1449 1444 1440 1438 1439 1449 1457 1447 1442 1445 1443 1449 1455 1434 1410 1407 1406 1404 1403 1401 1401 1403 1405 1406 1407 1408 1409 1411 1414 1416 1418 1421 1424 1428 1431 1435 1440 1445 1450 1454 1458 1461 1465 1469 1473 1476 1480 1484 1488 1491 1494 1497 1501 1505 1509 1513 1516 1519 1522 1525 1528 1531 1533 1535 1538 1540 1542 1544 1547 1549 1551 1553 1555 1557
1475 1477 1480 1477 1466 1453 1444 1441 1441 1442 1445 1448 1451 1451 1450 1448 1446 1448 1446 1440 1441 1442 1440 1450 1453 1428 1406 1405 1404 1403 1402 1401 1401 1401 1402 1403 1405 1406 1408 1409 1412 1414 1416 1419 1422 1425 1429 1433 1439 1443 1447 1450 1454 1457 1461 1464 1468 1472 1476 1480 1483 1486 1490 1494 1498 1502 1506 1509 1513 1516 1519 1522 1525 1528 1530 1532 1535 1537 1539 1542 1544 1546 1548 1550 1552 1554
1479 1479 1480 1480 1471 1455 1445 1444 1445 1447 1452 1458 1460 1459 1456 1454 1454 1449 1438 1435 1439 1435 1434 1447 1445 1421 1406 1406 1405 1403 1403 1402 1401 1401 1400 1401 1402 1404 1406 1406 1409 1411 1413 1416 1419 1422 1427 1432 1436 1439 1442 1445 1449 1453 1456 1459 1464 1468 1471 1475 1479 1483 1487 1491 1495 1499 1502 1506 1510 1513 1516 1519 1522 1524 1526 1529 1532 1534 1537 1539 1541 1543 1545 1548 1549 1551
1480 1479 1479 1483 1482 1470 1458 1459 1467 1471 1469 1466 1462 1460 1458 1458 1458 1452 1444 1445 1444 1432 1429 1434 1428 1414 1407 1406 1404 1404 1404 1403 1402 1401 1401 1401 1401 1403 1404 1405 1406 1408 1410 1412 1415 1419 1423 1427 1429 1433 1436 1440 1444 1448 1451 1455 1459 1463 1468 1472 1476 1480 1484 1488 1492 1496 1499 1503 1506 1509 1512 1515 1518 1521 1523 1526 1529 1532 1534 1536 1538 1540 1542 1544 1547 1549
1480 1479 1478 1481 1481 1476 1472 1474 1479 1481 1478 1472 1465 1460 1459 1460 1459 1458 1459 1455 1443 1433 1430 1423 1414 1412 1410 1406 1404 1404 1403 1404 1403 1400 1400 1399 1399 1400 1402 1404 1404 1404 1406 1407 1410 1414 1419 1422 1425 1428 1431 1435 1439 1444 1448 1451 1455 1460 1464 1468 1472 1477 1481 1484 1488 1492 1496 1499 1503 1506 1509 1512 1515 1518 1521 1523 1526 1529 1531 1533 1535 1537 1539 1541 1544 1545
1482 1481 1478 1478 1478 1476 1475 1476 1476 1476 1477 1474 1469 1463 1458 1457 1456 1458 1459 1451 1440 1437 1431 1417 1410 1412 1406 1402 1405 1403 1400 1401 1401 1399 1397 1396 1396 1397 1398 1400 1401 1401 1402 1404 1407 1410 1414 1417 1420 1423 1427 1431 1436 1441 1445 1448 1452 1456 1460 1465 1469 1474 1477 1481 1485 1488 1492 1495 1499 1502 1505 1508 1512 1515 1518 1520 1523 1526 1528 1530 1532 1534 1536 1538 1540 1542
1484 1483 1478 1477 1477 1475 1474 1474 1473 1474 1474 1471 1468 1464 1457 1454 1454 1453 1450 1444 1441 1441 1431 1416 1411 1407 1396 1393 1399 1398 1396 1397 1396 1395 1394 1392 1392 1392 1392 1394 1395 1396 1398 1400 1403 1406 1408 1412 1415 1419 1423 1428 1433 1438 1441 1446 1450 1454 1458 1462 1466 1470 1473 1477 1481 1484 1488 1491 1494 1498 1501 1505 1508 1511 1514 1517 1519 1522 1524 1527 1529 1531 1533 1535 1537 1539
1484 1483 1477 1476 1477 1474 1473 1472 1470 1470 1470 1467 1464 1460 1455 1451 1447 1444 1441 1437 1436 1437 1430 1420 1413 1403 1392 1391 1394 1392 1392 1392 1391 1391 1392 1390 1389 1388 1388 1388 1388 1389 1392 1394 1397 1400 1403 1407 1410 1414 1419 1424 1429 1434 1437 1442 1446 1450 1454 1458 1462 1466 1470 1473 1477 1481 1484 1487 1490 1494 1498 1502 1505 1508 1511 1513 1516 1518 1521 1523 1525 1527 1529 1531 1533 1535
1485 1483 1476 1476 1477 1473 1469 1468 1466 1468 1469 1466 1461 1455 1452 1448 1442 1437 1434 1432 1432 1431 1426 1422 1417 1405 1393 1393 1394 1391 1389 1389 1389 1389 1389 1387 1386 1384 1383 1382 1382 1383 1386 1389 1392 1395 1399 1403 1407 1411 1416 1421 1425 1429 1433 1437 1441 1445 1450 1454 1458 1462 1466 1470 1474 1477 1480 1484 1487 1492 1495 1498 1502 1504 1507 1510 1512 1515 1517 1520 1522 1524 1526 1527 1529 1531
1486 1484 1479 1479 1479 1473 1467 1466 1467 1466 1465 1463 1459 1453 1449 1447 1442 1438 1436 1434 1433 1429 1422 1417 1414 1405 1398 1397 1396 1392 1389 1389 1389 1389 1387 1385 1383 1380 1379 1378 1378 1379 1381 1385 1389 1392 1395 1400 1404 1408 1413 1417 1421 1426 1430 1434 1438 1442 1446 1450 1454 1459 1463 1467 1470 1474 1477 1481 1485 1489 1492 1495 1498 1501 1503 1506 1509 1511 1514 1516 1518 1520 1522 1523 1525 1528
1485 1487 1485 1483 1479 1472 1467 1467 1467 1465 1461 1456 1452 1450 1448 1445 1443 1441 1437 1434 1433 1432 1426 1418 1411 1407 1404 1402 1398 1394 1391 1390 1390 1389 1388 1384 1380 1377 1375 1375 1376 1377 1378 1381 1385 1389 1392 1396 1400 1403 1408 1412 1417 1421 1425 1430 1434 1438 1441 1446 1451 1456 1460 1464 1467 1471 1475 1478 1482 1485 1488 1492 1495 1497 1500 1502 1505 1508 1510 1512 1514 1516 1518 1520 1522 1524
1484 1486 1486 1484 1479 1473 1468 1466 1467 1466 1459 1448 1443 1444 1444 1442 1443 1443 1439 1435 1432 1430 1428 1422 1415 1411 1408 1403 1399 1397 1393 1391 1390 1390 1388 1385 1381 1377 1374 1374 1376 1378 1379 1381 1383 1385 1389 1392 1396 1400 1404 1409 1413 1417 1423 1428 1432 1436 1441 1446 1450 1454 1458 1461 1465 1468 1472 1475 1479 1482 1485 1488 1491 1493 1496 1499 1502 1504 1506 1508 1510 1512 1514 1516 1518 1520
1483 1485 1485 1483 1480 1474 1469 1467 1467 1463 1453 1442 1439 1440 1439 1438 1440 1441 1436 1432 1431 1429 1425 1422 1418 1412 1407 1403 1400 1397 1394 1393 1391 1388 1386 1385 1382 1378 1375 1374 1375 1377 1379 1381 1383 1385 1388 1391 1395 1399 1403 1408 1412 1417 1423 1428 1432 1437 1441 1445 1449 1453 1456 1459 1462 1466 1469 1472 1475 1479 1482 1484 1487 1490 1493 1495 1498 1500 1502 1504 1506 1508 1510 1512 1514 1515
1481 1484 1484 1482 1478 1474 1472 1470 1465 1455 1444 1439 1439 1439 1438 1438 1440 1441 1438 1432 1431 1430 1426 1423 1418 1411 1406 1403 1399 1396 1394 1393 1390 1387 1386 1384 1382 1379 1376 1374 1374 1376 1378 1380 1383 1385 1387 1390 1394 1397 1402 1407 1411 1416 1421 1426 1430 1435 1439 1443 1447 1450 1454 1457 1461 1464 1466 1469 1472 1475 1478 1481 1484 1486 1489 1492 1494 1496 1498 1500 1502 1504 1506 1508 1509 1511
1477 1481 1483 1481 1476 1472 1472 1470 1463 1452 1444 1442 1443 1442 1443 1445 1445 1447 1447 1438 1430 1430 1429 1425 1419 1412 1407 1402 1397 1394 1393 1391 1389 1388 1387 1385 1383 1380 1377 1375 1374 1376 1377 1380 1384 1386 1389 1392 1395 1398 1402 1406 1411 1415 1420 1425 1429 1433 1437 1442 1445 1448 1452 1455 1458 1461 1464 1466 1469 1472 1475 1478 1481 1483 1486 1488 1490 1492 1494 1496 1498 1500 1502 1504 1505 1507
1474 1477 1481 1481 1475 1470 1472 1471 1464 1454 1446 1446 1448 1445 1445 1447 1444 1445 1448 1441 1432 1430 1430 1426 1421 1415 1408 1402 1397 1393 1392 1394 1397 1395 1391 1389 1386 1383 1380 1377 1375 1376 1378 1380 1383 1386 1390 1393 1396 1399 1403 1407 1411 1415 1420 1424 1428 1432 1436 1439 1443 1446 1450 1453 1455 1458 1461 1464 1467 1470 1472 1475 1478 1480 1482 1484 1486 1489 1491 1493 1495 1496 1498 1500 1501 1502
1472 1475 1478 1480 1478 1474 1474 1473 1467 1455 1446 1447 1448 1443 1441 1444 1441 1441 1445 1442 1435 1433 1431 1427 1423 1417 1411 1405 1399 1394 1395 1401 1404 1400 1395 1392 1389 1386 1383 1380 1377 1376 1378 1380 1383 1386 1389 1393 1396 1400 1404 1408 1411 1415 1419 1423 1427 1430 1434 1437 1441 1444 1447 1449 1452 1455 1458 1461 1464 1467 1470 1472 1475 1477 1479 1481 1483 1486 1488 1490 1491 1493 1495 1496 1498 1499
1472 1476 1478 1480 1480 1476 1474 1473 1467 1456 1447 1445 1444 1440 1439 1439 1438 1441 1445 1443 1438 1436 1433 1429 1425 1420 1415 1409 1403 1399 1401 1405 1405 1401 1397 1395 1392 1389 1387 1383 1380 1378 1379 1381 1384 1387 1390 1393 1396 1400 1403 1407 1410 1414 1418 1422 1426 1429 1432 1436 1439 1442 1444 1447 1450 1453 1456 1460 1462 1465 1468 1470 1472 1474 1476 1478 1480 1483 1485 1487 1488 1490 1491 1493 1495 1496
1471 1475 1476 1476 1476 1474 1474 1473 1465 1454 1447 1443 1442 1439 1435 1432 1436 1444 1448 1446 1442 1439 1435 1432 1428 1424 1420 1414 1409 1407 1407 1406 1402 1400 1398 1396 1394 1392 1390 1388 1384 1381 1381 1383 1385 1388 1391 1394 1397 1400 1403 1406 1409 1413 1417 1420 1424 1427 1431 1434 1437 1439 1442 1445 1449 1452 1456 1458 1460 1463 1465 1467 1469 1471 1474 1476 1478 1480 1482 1484 1485 1487 1488 1490 1492 1493
1470 1471 1472 1473 1472 1470 1470 1469 1462 1453 1446 1443 1441 1437 1431 1434 1445 1451 1448 1446 1445 1441 1437 1434 1430 1426 1424 1419 1415 1412 1408 1404 1402 1400 1399 1398 1397 1396 1394 1392 1388 1386 1385 1386 1387 1389 1392 1394 1397 1399 1402 1405 1409 1412 1415 1419 1422 1425 1429 1432 1435 1438 1441 1445 1448 1451 1454 1456 1458 1460 1462 1464 1467 1469 1471 1473 1475 1477 1479 1480 1482 1484 1485 1487 1488 1489
1466 1467 1468 1467 1467 1466 1466 1465 1461 1455 1448 1442 1441 1439 1436 1443 1454 1454 1447 1445 1444 1441 1438 1434 1430 1429 1427 1422 1417 1412 1408 1406 1405 1403 1401 1400 1400 1400 1398 1395 1393 1391 1391 1390 1391 1393 1394 1395 1397 1399 1401 1405 1408 1411 1414 1417 1421 1424 1427 1431 1433 1437 1440 1443 1446 1449 1451 1453 1456 1458 1460 1462 1464 1466 1468 1470 1472 1474 1476 1477 1479 1480 1482 1483 1485 1486
1466 1466 1466 1464 1462 1463 1463 1460 1457 1455 1449 1444 1443 1444 1445 1450 1454 1452 1449 1447 1444 1441 1439 1435 1431 1430 1428 1424 1420 1415 1412 1411 1409 1406 1404 1404 1403 1403 1402 1400 1398 1397 1396 1396 1396 1397 1398 1398 1399 1400 1402 1405 1408 1411 1414 1417 1420 1423 1426 1429 1432 1435 1438 1441 1444 1446 1448 1451 1453 1455 1457 1459 1461 1463 1465 1467 1469 1471 1472 1474 1476 1477 1478 1480 1481 1482
1467 1466 1467 1466 1463 1461 1459 1456 1452 1451 1451 1448 1446 1447 1449 1452 1452 1451 1451 1448 1444 1442 1441 1437 1432 1429 1428 1427 1424 1420 1418 1416 1414 1411 1409 1408 1408 1407 1406 1405 1404 1402 1402 1401 1400 1401 1401 1402 1402 1403 1404 1406 1409 1412 1415 1418 1420 1423 1425 1428 1431 1434 1436 1439 1441 1443 1445 1447 1450 1452 1454 1456 1458 1460 1462 1464 1465 1467 1469 1471 1472 1473 1475 1476 1477 1479
1467 1465 1464 1465 1463 1459 1455 1452 1451 1451 1451 1451 1449 1449 1451 1453 1453 1452 1450 1448 1446 1444 1441 1438 1434 1430 1429 1429 1426 1424 1423 1421 1417 1415 1413 1412 1412 1411 1410 1409 1409 1407 1406 1405 1404 1404 1405 1405 1406 1406 1406 1408 1411 1413 1415 1418 1421 1423 1425 1428 1430 1432 1435 1437 1439 1441 1443 1445 1446 1448 1451 1453 1455 1457 1458 1460 1462 1463 1465 1467 1468 1470 1471 1473 1474 1475
1466 1464 1463 1465 1465 1461 1453 1450 1451 1452 1451 1451 1450 1450 1451 1452 1452 1451 1450 1449 1447 1445 1443 1439 1435 1432 1431 1431 1429 1427 1425 1423 1420 1418 1417 1416 1416 1415 1414 1414 1413 1412 1410 1408 1408 1408 1408 1408 1409 1409 1409 1410 1412 1415 1417 1419 1421 1423 1424 1426 1429 1431 1433 1435 1437 1439 1441 1442 1444 1446 1448 1450 1451 1453 1455 1457 1459 1460 1462 1463 1465 1466 1467 1469 1470 1472
1466 1465 1464 1466 1466 1462 1455 1452 1452 1451 1450 1451 1450 1450 1451 1452 1451 1450 1450 1449 1449 1448 1445 1440 1436 1434 1434 1434 1432 1430 1427 1424 1421 1420 1419 1419 1419 1419 1418 1418 1417 1415 1413 1412 1411 1412 1412 1411 1412 1412 1412 1413 1414 1417 1418 1419 1421 1422 1423 1424 1426 1429 1431 1433 1435 1437 1439 1441 1442 1444 1445 1447 1448 1450 1452 1454 1455 1457 1458 1459 1461 1462 1463 1465 1467 1468
1467 1466 1466 1467 1466 1461 1456 1454 1453 1451 1450 1450 1450 1450 1451 1452 1451 1449 1450 1450 1450 1449 1447 1442 1438 1437 1437 1437 1436 1434 1430 1427 1424 1421 1420 1420 1420 1420 1420 1420 1419 1417 1416 1414 1414 1414 1414 1414 1414 1414 1414 1415 1416 1417 1418 1419 1420 1421 1421 1422 1425 1428 1429 1431 1433 1435 1437 1439 1440 1441 1442 1444 1445 1447 1448 1450 1451 1453 1454 1456 1457 1459 1460 1462 1463 1465
1468 1467 1467 1467 1466 1461 1456 1455 1457 1457 1455 1452 1450 1450 1451 1451 1450 1449 1448 1449 1449 1448 1445 1442 1440 1439 1439 1439 1438 1436 1434 1430 1427 1424 1423 1421 1421 1421 1422 1421 1420 1419 1417 1417 1416 1416 1416 1416 1415 1415 1415 1416 1417 1418 1418 1419 1420 1420 1421 1423 1425 1426 1428 1429 1431 1433 1435 1436 1438 1439 1440 1441 1442 1443 1445 1446 1448 1449 1451 1453 1455 1456 1458 1459 1461 1463
1469 1468 1466 1466 1465 1461 1456 1455 1457 1458 1455 1452 1450 1450 1449 1449 1449 1447 1446 1446 1446 1445 1444 1442 1441 1441 1442 1441 1440 1439 1436 1433 1430 1427 1425 1424 1423 1423 1422 1421 1420 1419 1418 1418 1418 1418 1417 1417 1417 1416 1416 1416 1417 1417 1418 1418 1419 1420 1421 1423 1424 1425 1426 1427 1429 1431 1433 1435 1436 1437 1438 1439 1440 1441 1442 1444 1445 1447 1449 1450 1452 1454 1456 1458 1459 1460